Content
SEND FEEDBACK

Daily
Averages
Monthly
Summary
United States of America

GRASS VALLEY, CALIFORNIA


Home > North America > United States > California
Elevation: 2628 feet     Latitude: 39 16N     Longitude: 121 02W

WEATHER
 
SELECT A DAY
Number of Records: 62,650;   Date Range: 9/21/11 - 9/20/14
 
SHARE

PRINT THIS DATA

[ ← Previous Day ]
WEATHER ALMANAC - FEBRUARY 14, 2013
[ Next Day → ]
[ °C ]   °F
Weather ElementAverageHighLow
Temperature57.5 °F66.2 °F (11:55 am)48.2 °F (3:15 am)
Dewpoint26.8 °F39.2 °F (5:15 pm)15.8 °F (10:35 pm)
Humidity31.9 %51 % (5:35 pm)21 % (11:55 am)
Barometer30.24 in30.26 in (8:55 am)30.21 in (1:15 pm)
Wind Speed6.2 mph12.7 mph (7:35 pm)
Wind Gust20.7 mph (8:55 pm)
Weather ElementAverage
Visibility9.9 mi
Wind DirectionE (95 °)

Weather ElementTotal
Precipitation---
Heating Degree Days7.8 (Base 65)
Growing Degree Days7.2 (Base 50)
Averaged from 70 records on February 14, 2013
WEATHER CONDITIONS BREAKOUT
WIND DIRECTION BREAKOUT
WEATHER BY HOUR - FEBRUARY 14, 2013
[ °C ]   °F
Local TimeTemperatureDewpointHumidityBarometerVisibilityWind DirectionWind SpeedGust SpeedPrecipitationEventsConditions
12:35 AM53.6 °F26.6 °F35 %30.25 in10.0 miNNE (30°)4.6 mphClear
12:55 AM53.6 °F26.6 °F35 %30.25 in10.0 miNE (50°)6.9 mphClear
1:15 AM51.8 °F26.6 °F38 %30.24 in10.0 miNE (40°)5.8 mphClear
1:35 AM51.8 °F26.6 °F38 %30.24 in10.0 miNE (50°)5.8 mphClear
1:55 AM51.8 °F26.6 °F38 %30.24 in10.0 miNE (50°)6.9 mphClear
2:15 AM51.8 °F26.6 °F38 %30.24 in10.0 miENE (60°)5.8 mphClear
2:35 AM51.8 °F26.6 °F38 %30.24 in10.0 miNE (40°)5.8 mphClear
2:55 AM50.0 °F28.4 °F43 %30.24 in10.0 miNE (50°)5.8 mphClear
3:15 AM48.2 °F28.4 °F46 %30.23 in10.0 miNE (50°)5.8 mphClear
3:35 AM51.8 °F26.6 °F38 %30.23 in10.0 miEast (90°)5.8 mphClear
3:55 AM51.8 °F26.6 °F38 %30.23 in10.0 miESE (120°)5.8 mphClear
4:15 AM51.8 °F26.6 °F38 %30.23 in10.0 miEast (80°)6.9 mphClear
4:35 AM50.0 °F26.6 °F40 %30.22 in10.0 miNE (50°)5.8 mphClear
4:55 AM51.8 °F26.6 °F38 %30.22 in10.0 miEast (80°)8.1 mphClear
5:15 AM53.6 °F26.6 °F35 %30.23 in10.0 miEast (90°)8.1 mphClear
5:35 AM53.6 °F26.6 °F35 %30.23 in10.0 miEast (80°)9.2 mphClear
5:55 AM53.6 °F26.6 °F35 %30.23 in10.0 miNE (50°)6.9 mphClear
6:15 AM53.6 °F26.6 °F35 %30.23 in10.0 miEast (80°)8.1 mphClear
6:35 AM51.8 °F26.6 °F38 %30.24 in10.0 miENE (70°)6.9 mphClear
6:55 AM53.6 °F26.6 °F35 %30.24 in10.0 miEast (90°)5.8 mphClear
7:10 AM51.8 °F26.6 °F38 %30.24 in10.0 miNE (50°)4.6 mphClear
7:55 AM53.6 °F26.6 °F35 %30.25 in10.0 miCalmClear
8:15 AM53.6 °F28.4 °F38 %30.25 in10.0 miEast (90°)4.6 mphClear
8:35 AM53.6 °F30.2 °F41 %30.25 in10.0 miSE (140°)4.6 mphClear
8:55 AM55.4 °F28.4 °F36 %30.26 in10.0 miEast (100°)6.9 mphClear
9:15 AM57.2 °F28.4 °F33 %30.25 in10.0 miEast (100°)10.4 mphClear
9:35 AM59.0 °F28.4 °F31 %30.26 in10.0 miESE (110°)6.9 mphClear
9:55 AM62.6 °F26.6 °F26 %30.26 in10.0 miENE (60°)10.4 mphClear
10:15 AM62.6 °F26.6 °F26 %30.26 in10.0 miENE (70°)8.1 mphClear
10:35 AM64.4 °F26.6 °F24 %30.26 in10.0 miESE (110°)4.6 mphClear
10:55 AM62.6 °F26.6 °F26 %30.25 in10.0 miEast (100°)9.2 mphClear
11:15 AM64.4 °F28.4 °F26 %30.25 in10.0 miSSE (150°)3.5 mphClear
11:35 AM64.4 °F26.6 °F24 %30.25 in10.0 miESE (120°)4.6 mphClear
11:55 AM66.2 °F24.8 °F21 %30.24 in10.0 miEast (90°)9.2 mphClear
12:15 PM64.4 °F24.8 °F22 %30.24 in10.0 miSSE (160°)6.9 mphClear
12:35 PM66.2 °F24.8 °F21 %30.23 in10.0 miSE (130°)6.9 mphClear
12:55 PM66.2 °F26.6 °F23 %30.22 in10.0 miCalmClear
1:15 PM66.2 °F24.8 °F21 %30.21 in10.0 miCalmClear
1:35 PM66.2 °F24.8 °F21 %30.21 in10.0 miCalmClear
1:55 PM66.2 °F26.6 °F23 %30.21 in3.0 miWest (260°)4.6 mphClear
2:15 PM66.2 °F32.0 °F28 %30.21 in10.0 miWest (280°)4.6 mphClear
2:35 PM66.2 °F30.2 °F26 %30.21 in10.0 miCalmClear
2:55 PM66.2 °F32.0 °F28 %30.21 in10.0 miWNW (290°)8.1 mphClear
3:15 PM66.2 °F32.0 °F28 %30.21 in10.0 miWest (270°)8.1 mphClear
3:35 PM64.4 °F32.0 °F30 %30.21 in10.0 miWNW (290°)8.1 mphClear
3:55 PM62.6 °F37.4 °F39 %30.21 in10.0 miWNW (290°)9.2 mphClear
4:15 PM62.6 °F37.4 °F39 %30.21 in10.0 miWNW (290°)6.9 mphClear
4:35 PM62.6 °F37.4 °F39 %30.21 in10.0 miWNW (290°)6.9 mphClear
4:55 PM62.6 °F37.4 °F39 %30.21 in10.0 miCalmClear
5:15 PM59.0 °F39.2 °F48 %30.21 in10.0 miCalmClear
5:35 PM57.2 °F39.2 °F51 %30.21 in10.0 miCalmClear
5:55 PM57.2 °F37.4 °F48 %30.22 in10.0 miNE (50°)4.6 mphClear
6:15 PM55.4 °F37.4 °F51 %30.23 in10.0 miENE (60°)4.6 mphClear
6:35 PM55.4 °F32.0 °F41 %30.23 in10.0 miNE (40°)4.6 mphClear
6:55 PM57.2 °F26.6 °F31 %30.24 in10.0 miENE (60°)6.9 mphClear
7:15 PM57.2 °F24.8 °F29 %30.23 in10.0 miENE (60°)10.4 mph17.3 mphClear
7:35 PM57.2 °F23.0 °F27 %30.23 in10.0 miENE (70°)12.7 mph17.3 mphClear
7:55 PM57.2 °F23.0 °F27 %30.24 in10.0 miENE (70°)12.7 mphClear
8:15 PM57.2 °F21.2 °F25 %30.24 in10.0 miEast (80°)11.5 mph17.3 mphClear
8:35 PM57.2 °F19.4 °F23 %30.25 in10.0 miEast (80°)11.5 mph16.1 mphClear
8:55 PM55.4 °F21.2 °F26 %30.25 in10.0 miEast (80°)12.7 mph20.7 mphClear
9:15 PM55.4 °F19.4 °F25 %30.24 in10.0 miENE (70°)9.2 mphClear
9:35 PM55.4 °F17.6 °F23 %30.25 in10.0 miEast (80°)10.4 mphClear
9:55 PM55.4 °F17.6 °F23 %30.25 in10.0 miEast (100°)5.8 mphClear
10:15 PM55.4 °F17.6 °F23 %30.25 in10.0 miEast (100°)5.8 mphClear
10:35 PM55.4 °F15.8 °F21 %30.26 in10.0 miEast (100°)3.5 mphClear
10:55 PM55.4 °F15.8 °F21 %30.26 in10.0 miEast (100°)6.9 mphClear
11:15 PM53.6 °F15.8 °F22 %30.26 in10.0 miEast (100°)4.6 mphClear
11:35 PM53.6 °F15.8 °F22 %30.26 in10.0 miEast (100°)4.6 mphClear
11:55 PM55.4 °F15.8 °F21 %30.26 in10.0 miESE (110°)5.8 mphClear
Hourly data recorded from KGOO, located miles away from Grass Valley, California







STORIES FROM OUR PARTNERS